Location: Eyeline Observatory
(43.2182°N, 78.8632°W)
Time: 10:44:19
(UTC-04:00)

Vanguard 1 - All Passes

Search period start: 19 October 2017 00:00
Search period end: 29 October 2017 00:00
Orbit: 650 x 3834 km, 34.3° (Epoch: 18 October)

Date Brightness Start Highest point End Pass type
(mag) Time Alt. Az. Time Alt. Az. Time Alt. Az.
19 Oct - 00:48:56 10° SSW 01:00:37 41° SE 01:19:08 10° E visible
19 Oct - 03:07:54 10° WSW 03:23:51 64° S 03:46:54 10° E visible
19 Oct - 05:29:53 10° W 05:49:44 62° SSW 06:12:00 10° ESE visible
19 Oct - 07:54:44 10° W 08:14:40 40° SW 08:32:39 10° SSE daylight
19 Oct - 10:28:30 10° WSW 10:36:16 13° WSW 10:43:24 10° SW daylight
19 Oct - 22:54:33 10° SSE 23:01:19 17° SE 23:10:22 10° E visible
20 Oct - 01:09:11 10° SW 01:21:18 48° SSE 01:41:00 10° E visible
20 Oct - 03:28:50 10° WSW 03:45:11 65° S 04:08:23 10° ESE visible
20 Oct - 05:51:11 10° W 06:11:03 57° SSW 06:32:52 10° SE visible
20 Oct - 08:16:46 10° W 08:35:22 33° SW 08:52:14 10° SSE daylight
20 Oct - 23:13:18 10° S 23:21:27 24° SE 23:33:27 10° E visible
21 Oct - 01:29:38 10° SW 01:42:10 54° SSE 02:02:45 10° E visible
21 Oct - 03:49:50 10° WSW 04:06:34 65° S 04:29:48 10° ESE visible
21 Oct - 06:12:32 10° W 06:32:15 52° SSW 06:53:29 10° SE visible
21 Oct - 08:39:15 10° W 08:55:56 26° SW 09:11:13 10° S daylight
21 Oct - 23:32:47 10° SSW 23:41:45 31° SE 23:55:52 10° E visible
22 Oct - 01:50:16 10° WSW 02:03:11 59° SSE 02:24:26 10° E visible
22 Oct - 04:10:54 10° W 04:27:58 64° S 04:51:05 10° ESE visible
22 Oct - 06:34:00 10° W 06:53:21 46° SSW 07:13:50 10° SE visible
22 Oct - 09:02:34 10° W 09:16:23 20° SW 09:29:17 10° SSW daylight
22 Oct - 23:52:43 10° SSW 00:02:11 38° SE 00:17:55 10° E visible
23 Oct - 02:11:02 10° WSW 02:24:19 62° S 02:46:04 10° E visible
23 Oct - 04:32:03 10° W 04:49:19 61° SSW 05:12:13 10° ESE visible
23 Oct - 06:55:40 10° W 07:14:19 39° SW 07:33:48 10° SSE visible
23 Oct - 09:27:47 10° WSW 09:36:46 14° SW 09:45:23 10° SSW daylight
23 Oct - 21:59:15 10° SSE 22:03:37 14° SE 22:09:04 10° E night (unlit)
24 Oct - 00:12:56 10° SW 00:22:48 44° SSE 00:39:47 10° E visible
24 Oct - 02:31:54 10° WSW 02:45:33 64° S 03:07:39 10° ESE visible
24 Oct - 04:53:13 10° W 05:10:37 56° SSW 05:33:08 10° SE visible
24 Oct - 07:17:35 10° W 07:35:10 33° SW 07:53:20 10° SSE daylight
24 Oct - 22:17:36 10° S 22:23:45 20° SE 22:32:29 10° E night (unlit)
25 Oct - 00:33:22 10° SW 00:43:35 51° SSE 01:01:33 10° E visible
25 Oct - 02:52:50 10° WSW 03:06:51 63° S 03:29:07 10° ESE visible
25 Oct - 05:14:30 10° W 05:31:52 51° SSW 05:53:47 10° SE visible
25 Oct - 07:39:59 10° W 07:55:54 26° SW 08:12:14 10° S daylight
25 Oct - 22:36:59 10° S 22:44:01 26° SE 22:54:56 10° E night (unlit)
26 Oct - 00:53:58 10° WSW 01:04:31 56° SSE 01:23:15 10° E visible
26 Oct - 03:13:49 10° W 03:28:09 62° S 03:50:28 10° ESE visible
26 Oct - 05:35:52 10° W 05:53:01 44° SSW 06:14:07 10° SE visible
26 Oct - 08:03:13 10° W 08:16:33 20° SW 08:30:10 10° S daylight
26 Oct - 22:56:51 10° SSW 23:04:26 33° SE 23:16:59 10° E night (unlit)
27 Oct - 01:14:41 10° WSW 01:25:33 59° S 01:44:54 10° E visible
27 Oct - 03:34:52 10° W 03:49:27 58° SSW 04:11:39 10° ESE visible
27 Oct - 05:57:27 10° W 06:14:05 38° SSW 06:34:04 10° SSE visible
27 Oct - 08:28:24 10° WSW 08:37:09 13° SW 08:46:00 10° SSW daylight
27 Oct - 23:17:03 10° SW 23:25:00 40° SSE 23:38:48 10° E visible
28 Oct - 01:35:29 10° WSW 01:46:41 61° S 02:06:29 10° ESE visible
28 Oct - 03:55:58 10° W 04:10:44 53° SSW 04:32:36 10° SE visible
28 Oct - 06:19:18 10° W 06:35:03 31° SW 06:53:32 10° SSE visible
28 Oct - 21:22:19 10° SSE 21:26:33 16° SE 21:32:05 10° E night (unlit)
